Location: Allerheiligen
(47.7333°N, 9.4000°E)
Time: 21:20:44
(UTC+00:00)

Daily predictions for brighter satellites

Satellite Brightness Start Highest point End
(mag) Time Altitude Azimuth Time Altitude Azimuth Time Altitude Azimuth
CZ-4C R/B 3.0 15:53:36 10° NW 16:00:19 61° NE 16:08:42 10° SE
Cosmos 2266 Rocket 4.4 15:56:10 10° N 16:01:55 40° ENE 16:07:33 10° SE
CBERS-1 4.0 15:59:14 10° SSE 16:04:18 67° ENE 16:09:23 10° N
SMAP 3.5 16:01:29 10° SE 16:05:47 39° ENE 16:10:08 10° N
Cosmos 2297 Rocket 2.2 16:04:03 10° NNW 16:09:44 75° ENE 16:15:24 10° SSE
Landsat 7 4.4 16:06:27 10° SE 16:10:38 34° ENE 16:14:50 10° N
Cosmos 1626 Rocket 3.6 16:10:12 10° N 16:14:33 88° WSW 16:18:50 10° S
Meteor 1-28 Rocket 2.9 16:12:05 10° NNE 16:15:25 58° ESE 16:18:41 10° S
NOSS 2-2 (C) 4.3 16:13:42 10° WSW 16:16:26 27° NW 16:19:04 10° NNE
Cosmos 1315 Rocket 4.3 16:18:21 10° SW 16:21:52 34° WNW 16:25:25 10° N
Cosmos 1606 Rocket 4.4 16:19:20 10° SSE 16:23:12 30° E 16:27:05 10° NNE
BlueWalker 3 4.1 16:20:30 10° WNW 16:23:37 27° SW 16:26:44 10° SSE
ATLAS CENTAUR R/B 2.5 16:23:02 10° NW 16:26:01 35° WSW 16:28:54 10° S
Thor Agena Rocket 3.5 16:21:32 10° SSE 16:26:44 76° ENE 16:31:53 10° NNW
Cosmos 1503 Rocket 4.1 16:22:26 10° S 16:27:34 59° ESE 16:32:41 10° NNE
Cosmos 2219 4.2 16:24:38 10° N 16:29:20 25° NE 16:34:01 10° E
CENTAUR R/B 3.6 16:23:56 10° W 16:29:29 37° NNW 16:36:23 10° NE
Cosmos 1484 Rocket 3.3 16:28:00 10° S 16:31:27 55° W 16:34:54 10° NNW
Cosmos 1544 Rocket 3.8 16:27:57 10° SSW 16:32:20 73° W 16:36:47 10° N
USA 290 2.7 16:30:17 10° NNW 16:33:31 63° WSW 16:36:44 10° SSE
AQUARIUS 4.5 16:29:38 10° SE 16:33:46 41° ENE 16:37:54 10° N
SL-16 R/B 2.7 16:27:36 10° NNE 16:33:51 78° WNW 16:40:02 10° SSW
GEOS 3 Rocket 3.8 16:28:57 10° NE 16:34:19 66° SE 16:39:39 10° SSW
Cosmos 1980 Rocket 3.4 16:30:12 10° SSE 16:34:33 23° ESE 16:37:57 14° ENE
Lacrosse 5 rocket 2.7 16:32:08 10° WNW 16:35:09 23° NNW 16:37:41 12° NE
Cosmos 1844 Rocket 4.4 16:33:33 10° N 16:36:00 13° NNE 16:37:20 12° NE
Cosmos 1354 Rocket 4.2 16:32:08 10° S 16:37:12 51° ESE 16:42:17 10° NNE
Meteor 1-25 Rocket 4.3 16:33:47 10° N 16:39:35 63° ENE 16:45:17 10° SSE
Meteor 1-5 Rocket 4.5 16:34:33 10° N 16:39:38 41° ENE 16:44:46 10° SE
Lacrosse 4 Rocket 3.8 16:37:29 10° WNW 16:39:42 14° NW 16:41:55 10° N
BREEZE M DEB (TANK) 2.3 16:37:40 10° SW 16:40:10 42° SSE 16:41:17 21° E
CORIOLIS 4.1 16:35:37 10° SSE 16:40:57 87° ENE 16:46:20 10° NNW
Cosmos 1777 Rocket 4.0 16:38:30 10° SSW 16:43:46 88° WNW 16:49:02 10° NNE
IRIDIUM 104 4.3 16:39:05 10° N 16:44:20 80° E 16:49:33 10° S
Cosmos 2263 Rocket 2.6 16:39:16 10° NNW 16:44:37 40° NE 16:49:57 10° ESE
Cosmos 1726 Rocket 4.1 16:42:43 10° SSE 16:47:03 40° E 16:51:22 10° NNE
CZ-2D R/B 2.6 16:44:37 10° SSE 16:47:41 60° ENE 16:50:49 10° N
USA 238 DEB 4.2 16:44:18 10° S 16:49:41 34° ESE 16:53:47 18° ENE
USA 238 4.2 16:44:26 10° S 16:49:48 34° ESE 16:53:52 18° ENE
Okean 1-7 Rocket 3.5 16:47:10 10° N 16:51:35 83° E 16:55:56 10° S
ERS-1 4.4 16:48:16 10° SSE 16:53:14 69° ENE 16:58:11 10° N
IRIDIUM 114 4.4 16:48:13 10° N 16:53:28 86° W 16:58:41 10° S
Cosmos 1602 Rocket 4.0 16:49:08 10° NNW 16:53:29 65° W 16:57:47 10° S
Cosmos 1461 3.0 16:51:40 10° SW 16:55:32 66° NW 16:58:30 17° NNE
Cosmos 1933 3.1 16:53:20 10° S 16:57:08 74° E 17:00:58 10° NNE
USA 215 4.0 16:53:50 17° ENE 16:58:23 40° N 17:04:23 10° WNW
IRS-1C 4.1 16:53:37 10° SSE 16:58:56 89° ENE 17:04:18 10° NNW
YAOGAN 1 3.3 16:56:06 10° SE 16:59:47 29° ENE 17:03:29 10° N
Cosmos-2242 4.0 16:56:30 10° SE 16:59:53 24° E 17:00:12 24° E
Cosmos 2227 Rocket 2.1 16:55:30 10° NNW 17:01:11 83° ENE 17:06:50 10° SSE
BREEZE-M DEB (TANK) 4.0 16:57:42 10° SSW 17:01:17 22° SSE 17:02:21 18° ESE
SKYMED 2 4.2 16:58:49 19° NE 17:01:22 34° E 17:05:20 10° SSE
NOSS 2-3 (E) 3.4 16:58:30 10° SSW 17:02:03 49° SE 17:03:38 28° ENE
NOSS 2-3 (D) 3.5 16:59:11 10° SSW 17:02:44 45° SE 17:04:14 29° ENE
SJ-12 3.7 17:00:02 10° SSE 17:03:48 86° WSW 17:07:36 10° NNW
Cosmos 1743 4.4 17:01:02 10° NNW 17:03:55 29° W 17:06:47 10° SSW
NOSS 7 (H) 4.4 17:01:46 10° NW 17:04:41 67° SW 17:07:55 10° SSE
Cosmos 2151 4.1 17:03:33 10° NNW 17:07:33 46° W 17:11:31 10° SSW
Cosmos 1655 Rocket 3.9 17:07:20 10° N 17:13:36 72° E 17:19:47 10° SSE
Cosmos 1697 Rocket 2.7 17:08:56 10° SSW 17:14:32 86° WNW 17:19:15 15° NNE
Meteor 2-10 4.2 17:09:29 10° N 17:14:43 51° ENE 17:20:07 10° SSE
Cosmos 990 Rocket 3.9 17:09:42 10° SSW 17:14:49 87° ESE 17:19:09 15° NNE
CZ-4 R/B 4.2 17:11:21 10° SSE 17:15:14 62° ENE 17:19:09 10° N
Cosmos 1867 4.1 17:10:43 10° NW 17:16:06 60° WSW 17:21:25 10° SSE
MOS 1 Rocket 3.5 17:11:36 10° SSE 17:16:32 83° WSW 17:21:46 10° NNW
Aureole 1 Rocket 3.6 17:12:59 10° S 17:17:11 44° ESE 17:19:37 27° NE
SAR-Lupe-4 4.4 17:13:46 10° S 17:17:14 52° WSW 17:20:45 10° NNW
Cosmos 1953 Rocket 3.5 17:12:55 10° N 17:17:22 67° ENE 17:21:47 10° SSE
ARIANE 5 R/B 3.2 17:19:00 10° S 17:23:57 55° W 17:29:00 10° NNW
Cosmos 1825 Rocket 4.1 17:22:23 10° NNW 17:26:40 58° W 17:30:53 10° S
COSMOS 2455 4.2 17:26:27 10° SSE 17:29:38 20° ESE 17:29:38 20° ESE
NOAA 6 4.2 17:26:34 10° SE 17:31:25 46° ENE 17:36:16 10° N
Cosmos 1680 Rocket 4.4 17:28:07 10° N 17:31:46 29° NE 17:31:46 29° NE
USA 81 3.9 17:29:10 10° N 17:34:27 73° E 17:39:42 10° SSE
CZ-2D R/B 3.3 17:31:02 10° SSE 17:35:14 78° ENE 17:39:24 10° N
Radarsat Rocket 4.5 17:28:43 10° SSE 17:36:47 70° ENE 17:43:58 10° NNW
IRAS Rocket 4.1 17:32:21 10° SSE 17:37:45 62° ENE 17:43:10 10° N
Meteor 2-2 Rocket 4.2 17:33:32 10° S 17:39:01 56° E 17:41:51 28° NNE
Gbstr 26 Del rocket 2.5 17:35:15 10° WSW 17:39:15 80° NNW 17:39:37 70° NE
NOSS 3-2 (C) 4.0 17:34:40 10° WSW 17:39:40 47° NW 17:43:16 22° NNE
SPOT 1/Viking Rocket 3.6 17:35:42 10° SSE 17:40:55 80° WSW 17:46:10 10° NNW
PSLV R/B 3.3 17:38:55 10° SSE 17:43:07 65° NE 17:46:56 10° N
Cosmos 1076 Rocket 4.1 17:40:30 10° NNW 17:44:44 58° W 17:48:58 10° S
SL-19 R/B 4.1 17:41:09 10° SSE 17:46:31 75° ENE 17:52:13 10° NNW
Cosmos 2082 3.6 17:42:47 10° NNW 17:48:29 64° ENE 17:50:41 37° SE
CZ-4C R/B 4.2 17:41:56 10° NW 17:48:45 44° WSW 17:56:52 10° S
COSMO-SKYMED 1 2.3 17:49:12 69° SE 17:49:12 69° SE 17:53:05 10° S
Cosmos 2058 Rocket 2.9 17:45:01 10° S 17:49:28 84° E 17:50:44 47° NNE
SL-16 R/B 4.3 17:55:47 10° SSE 17:56:09 11° SSE 17:56:09 11° SSE
Cosmos 1538 Rocket 4.5 17:55:29 10° NNW 18:00:42 61° WSW 18:05:56 10° S
Meteor 2-11 Rocket 4.3 17:54:45 10° N 18:00:53 63° ENE 18:06:58 10° SSE
Nadezhda 2 Rocket 4.3 17:56:28 10° N 18:02:37 83° E 18:08:43 10° S
Meteor 1-26 Rocket 4.0 17:57:58 10° S 18:03:23 89° E 18:05:35 38° NNE
Cosmos 1553 Rocket 3.8 18:04:31 10° S 18:10:40 84° E 18:14:51 23° N
Resurs 1-3 4.2 18:07:37 10° S 18:11:49 55° W 18:16:04 10° NNW
Lacrosse 5 rocket 3.6 18:10:20 10° NW 18:11:16 14° NNW 18:11:16 14° NNW
Cosmos 2219 3.4 18:08:18 10° NNW 18:14:01 72° WSW 18:17:57 21° SSE
Cosmos 1980 Rocket 2.5 18:12:27 10° SW 18:18:04 62° WNW 18:19:44 43° N
Cosmos 1844 Rocket 3.8 18:15:54 10° NNW 18:18:59 30° N 18:18:59 30° N
CENTAUR R/B 4.3 18:16:52 10° NW 18:22:21 24° N 18:24:02 22° NNE
Cosmos 2263 Rocket 3.5 18:23:17 10° NW 18:28:30 38° WSW 18:33:41 10° S
Cosmos 1898 Rocket 3.8 18:24:58 10° SW 18:30:04 62° WNW 18:30:11 61° WNW
Cosmos 2369 3.7 18:25:14 10° SSW 18:30:42 80° WSW 18:30:42 80° WSW
YAOGAN 1 4.3 18:31:49 10° SSW 18:35:35 30° W 18:39:22 10° NNW
USA 238 DEB 3.9 18:34:10 10° WSW 18:40:14 58° NW 18:41:13 53° N
USA 238 3.9 18:34:14 10° WSW 18:40:21 59° NW 18:41:19 53° N
USA 215 3.6 18:41:10 52° N 18:41:10 52° N 18:47:01 10° NW
Cosmos 1937 Rocket 4.4 18:43:46 10° SW 18:47:30 43° WSW 18:47:30 43° WSW
COSMOS 2455 4.4 19:10:05 10° SW 19:12:49 28° SW 19:12:49 28° SW
